Wind_Speed
16 17 17 17 17 17 18 18 17 17 17 18 18 18 20 21 22 23 24 24 25 25 23 22 21 20 20 19 18 18 18 17 16 15 14 14 13 13 12 11 11 11 11
16 17 17 18 17 17 18 18 17 17 16 16 17 18 19 21 23 24 24 25 26 26 25 23 22 21 21 21 20 19 19 18 18 17 16 15 14 13 13 12 11 11 11
17 17 17 18 17 18 18 18 17 16 15 15 16 18 19 21 23 24 25 26 26 27 26 25 23 22 22 22 21 20 20 19 19 19 18 17 15 14 13 12 12 12 11
17 17 17 18 18 18 18 17 16 15 15 15 15 17 19 21 23 25 25 26 27 27 27 26 25 23 22 23 22 21 21 20 20 20 19 18 17 15 14 13 12 12 11
18 17 18 18 18 19 18 16 15 14 13 13 13 15 17 20 22 25 25 26 27 27 26 26 26 24 23 23 22 22 23 22 21 21 20 19 18 16 15 15 13 13 12
18 18 18 18 19 19 17 14 13 12 11 11 12 13 15 18 22 24 26 26 26 27 27 26 25 24 23 23 22 23 23 23 22 22 21 20 19 17 17 16 15 14 13
19 19 18 19 18 18 16 13 11 10 9 9 10 12 14 16 20 23 26 26 26 27 27 27 26 25 24 23 23 23 22 22 22 23 22 21 20 19 18 17 17 16 15
20 20 18 18 18 17 15 13 11 9 7 7 8 10 13 15 19 22 24 25 25 26 27 27 26 25 25 24 22 22 22 23 23 23 22 21 20 20 19 19 18 17 17
20 20 19 18 17 16 15 13 10 8 6 5 7 9 11 14 18 20 22 24 25 26 27 28 27 26 25 24 24 23 23 23 23 23 22 22 21 20 20 20 20 19 18
20 20 19 18 17 16 15 12 9 7 5 4 5 7 9 12 16 18 21 23 24 25 26 27 27 26 26 24 24 24 23 24 24 23 23 22 22 21 21 21 21 20 20
19 20 19 18 17 17 15 12 9 6 4 2 3 5 8 11 14 16 19 22 23 24 25 27 27 26 25 25 24 24 24 24 24 24 23 22 22 21 21 21 21 21 21
19 19 19 18 18 17 15 12 9 7 4 2 2 4 7 9 12 15 18 20 22 23 24 27 27 26 25 25 25 25 25 25 25 25 23 22 22 21 22 23 22 22 22
18 19 19 18 17 17 15 12 9 7 5 2 1 3 5 8 11 14 17 19 20 22 23 25 26 26 25 25 26 24 25 25 25 25 24 23 22 22 22 24 23 23 24
18 18 18 17 16 16 15 12 10 7 6 3 1 2 4 7 10 13 15 18 19 21 22 23 24 24 24 25 25 24 25 26 26 25 25 25 24 23 23 24 25 24 25
17 17 17 17 16 15 14 13 10 8 6 4 2 2 4 6 8 11 14 16 17 19 22 22 23 23 24 24 25 24 25 26 26 26 26 26 25 24 25 25 25 26 26
17 17 17 16 16 15 14 13 11 8 7 5 2 2 3 4 7 9 12 14 16 17 19 22 22 23 23 24 25 25 25 26 27 28 28 27 27 26 26 26 27 27 27
17 17 17 16 16 15 14 12 11 10 8 6 4 3 4 5 6 8 10 13 15 17 17 19 20 21 22 23 24 26 26 26 27 28 28 28 28 28 28 28 28 29 29
18 18 17 17 16 15 14 12 11 10 9 7 5 4 5 6 7 8 10 12 14 15 16 17 18 20 21 22 24 25 25 26 26 27 28 28 28 28 29 29 29 30 29
19 18 18 17 17 15 14 13 11 10 9 8 7 6 6 7 8 9 10 12 13 14 15 16 17 19 20 21 22 23 24 26 26 27 28 28 28 28 28 28 28 29 29
20 20 19 19 18 17 15 14 13 11 10 9 9 8 7 8 9 10 12 13 13 14 15 16 17 17 18 20 21 22 22 24 25 25 26 27 28 28 28 27 28 28 29
22 22 21 20 19 19 17 16 15 13 12 11 11 10 9 9 10 12 13 14 14 15 16 16 17 17 18 19 20 20 22 23 24 24 25 27 27 28 28 28 29 29 30
24 24 23 22 21 20 20 19 17 16 15 14 13 13 13 12 12 12 13 14 15 16 17 17 17 18 18 18 19 20 21 22 23 24 24 25 26 27 28 29 29 29 31
26 26 25 25 24 23 22 21 20 19 18 17 16 16 15 15 15 15 15 16 16 17 18 19 19 19 19 19 20 21 21 22 22 23 23 24 25 26 27 27 28 28 29
29 28 28 28 27 27 26 24 23 22 21 20 20 19 18 18 18 17 17 17 18 18 19 18 19 19 20 20 20 21 22 22 23 22 23 23 23 24 25 26 26 26 26
32 32 31 31 30 29 29 28 27 26 25 24 23 22 21 21 20 20 20 20 19 20 20 20 20 19 19 19 19 20 21 23 23 23 23 23 23 24 24 25 26 25 25
36 35 34 34 33 32 32 31 31 29 28 28 26 25 25 24 24 23 23 22 22 21 21 21 21 21 21 20 20 20 20 21 22 23 23 23 23 24 23 24 24 25 25
Wind_Direction
324 322 320 317 312 308 305 301 295 288 279 268 258 248 237 229 225 221 218 216 213 211 212 209 208 206 204 200 200 199 197 193 190 187 183 179 176 174 170 167 168 169 166
325 323 322 319 315 311 307 302 296 289 281 269 255 244 235 227 223 220 216 214 213 211 212 211 209 208 206 205 202 200 198 196 196 192 188 186 185 182 179 176 175 172 172
327 326 325 323 319 315 310 303 296 289 282 270 255 243 233 227 222 219 217 215 213 211 211 210 210 208 208 207 202 199 198 197 198 195 193 191 190 189 188 184 184 182 181
331 329 328 326 322 320 316 307 298 289 282 270 255 243 233 227 221 218 216 214 212 211 212 211 211 210 209 206 203 201 199 198 198 197 196 195 194 195 196 194 194 193 193
335 333 332 329 326 323 320 312 304 292 282 269 254 241 231 225 220 217 214 212 212 211 210 209 210 210 210 206 204 202 199 199 199 199 198 198 198 201 202 203 202 201 200
340 336 334 333 330 327 324 318 310 298 283 266 250 237 228 223 218 215 211 211 210 209 208 206 208 209 209 208 206 204 201 199 200 202 201 201 202 205 206 207 208 208 208
344 341 338 336 335 334 331 325 317 305 287 264 245 232 224 220 216 213 211 209 208 208 207 207 208 208 210 210 207 205 202 199 202 203 204 204 206 209 211 212 213 213 215
346 345 343 341 339 339 337 333 324 313 291 262 243 230 221 219 215 213 209 208 207 207 207 207 207 207 209 208 207 206 205 204 202 203 205 208 210 212 215 216 218 218 219
349 348 348 346 344 343 341 338 332 322 297 263 241 232 223 217 213 210 207 206 206 208 206 206 207 207 208 208 206 206 208 206 205 205 208 211 213 215 219 220 222 222 222
352 351 352 351 349 347 344 343 337 331 313 274 238 227 218 212 208 206 202 202 204 205 205 206 207 207 208 208 207 208 208 207 207 208 212 215 216 218 221 222 223 224 226
352 352 353 353 352 353 350 349 349 342 331 297 246 224 213 206 203 201 202 201 202 205 208 207 206 207 208 207 208 209 210 210 210 212 215 217 219 219 221 222 224 225 228
351 352 353 355 355 355 356 355 355 353 352 339 271 218 210 205 204 204 202 202 204 207 208 207 207 208 209 210 211 212 214 214 214 216 217 220 222 223 225 226 226 227 229
348 351 353 355 356 358 358 357 356 358 357 345 285 206 203 206 205 204 204 204 207 208 206 208 210 210 212 214 215 217 217 217 218 219 221 224 226 228 229 228 229 231 233
344 348 351 353 355 358 359 359 0 359 359 347 307 209 201 203 205 205 205 206 210 208 207 210 212 214 215 217 217 219 219 219 220 222 225 227 229 232 233 233 233 236 238
337 342 346 349 351 354 357 357 356 357 352 347 331 215 204 205 204 204 204 205 208 209 210 212 215 216 218 220 220 222 222 221 222 225 228 230 233 234 236 237 239 241 242
329 334 338 342 346 348 350 352 353 350 349 346 330 256 218 207 204 204 205 204 206 209 213 216 217 218 220 222 222 223 223 224 226 227 229 232 234 237 239 240 242 244 245
322 325 329 333 338 342 345 345 347 344 338 333 315 275 238 224 214 210 211 209 211 211 215 218 218 218 219 221 223 224 226 228 229 230 232 234 237 240 241 242 244 245 247
316 318 320 323 327 331 335 336 336 336 332 326 312 280 247 231 223 218 214 212 212 216 219 221 221 220 221 224 226 226 227 229 232 233 234 235 237 240 242 243 245 246 248
308 310 312 313 316 319 322 323 323 323 320 316 306 283 256 242 233 224 219 218 218 219 221 222 221 221 224 226 227 228 229 232 235 235 236 237 239 240 242 243 244 247 248
302 302 303 305 306 307 309 311 310 308 306 302 296 286 269 253 243 236 230 227 225 226 226 224 224 225 228 230 229 231 232 233 234 236 238 240 241 241 242 243 244 247 249
301 298 297 297 298 299 298 298 299 298 294 289 285 281 274 261 250 244 239 236 234 234 232 230 231 232 232 232 232 233 235 236 237 239 240 241 242 243 244 246 247 249 251
301 297 294 292 291 292 291 290 289 289 287 283 279 275 270 264 257 252 248 243 240 238 236 236 236 236 235 234 234 235 237 238 239 241 243 243 245 247 248 250 250 252 254
298 296 293 290 287 285 285 284 282 281 280 278 275 271 268 264 260 256 252 247 245 242 240 239 239 239 239 238 238 238 239 240 241 243 246 248 249 251 252 253 254 256 255
294 293 291 289 286 283 280 279 278 276 275 273 271 269 266 263 261 257 254 249 246 245 243 243 242 242 242 242 241 241 241 242 243 245 248 251 252 253 254 254 256 257 257
292 290 287 286 284 281 278 276 274 273 271 270 268 267 264 262 259 257 255 252 250 247 245 244 243 243 243 243 242 242 243 243 244 246 249 251 252 255 255 255 256 258 259
288 286 284 282 281 278 276 273 271 270 269 267 265 264 263 261 258 256 254 253 251 250 248 246 245 245 245 245 244 245 247 247 247 248 250 251 253 255 256 256 258 259 261
Height
5838 5835 5832 5830 5827 5825 5823 5820 5819 5817 5816 5816 5816 5817 5819 5821 5824 5826 5830 5833 5836 5840 5843 5846 5849 5852 5855 5857 5860 5863 5865 5868 5870 5873 5875 5877 5879 5881 5883 5885 5886 5888 5889
5835 5833 5830 5827 5824 5821 5819 5816 5814 5813 5812 5811 5811 5812 5814 5817 5819 5822 5825 5829 5833 5837 5840 5843 5846 5849 5852 5855 5858 5861 5864 5866 5869 5872 5874 5877 5879 5881 5883 5885 5887 5888 5890
5833 5830 5827 5824 5821 5818 5815 5812 5810 5808 5807 5807 5807 5808 5810 5812 5815 5818 5822 5825 5829 5833 5837 5840 5843 5847 5849 5852 5856 5859 5862 5865 5868 5871 5874 5876 5879 5881 5883 5885 5887 5889 5891
5830 5827 5824 5821 5818 5814 5811 5808 5806 5804 5803 5802 5803 5803 5805 5808 5811 5814 5818 5822 5825 5829 5833 5837 5841 5844 5846 5850 5853 5857 5860 5863 5866 5870 5873 5875 5878 5881 5883 5885 5887 5889 5890
5828 5825 5821 5818 5815 5811 5807 5804 5802 5800 5799 5798 5799 5800 5801 5804 5807 5810 5814 5818 5822 5826 5829 5833 5837 5841 5844 5847 5851 5854 5857 5860 5864 5868 5871 5874 5877 5880 5882 5884 5886 5888 5890
5826 5822 5819 5816 5812 5808 5804 5801 5799 5797 5795 5795 5795 5797 5798 5800 5803 5807 5811 5814 5818 5822 5826 5830 5834 5838 5842 5845 5848 5852 5855 5858 5862 5865 5869 5872 5875 5878 5881 5883 5885 5887 5889
5824 5820 5817 5813 5809 5805 5802 5799 5796 5794 5793 5792 5793 5794 5795 5797 5800 5803 5807 5811 5815 5819 5823 5827 5831 5835 5839 5843 5846 5849 5852 5856 5859 5863 5867 5870 5873 5876 5879 5881 5883 5885 5888
5823 5819 5815 5811 5807 5804 5800 5797 5794 5792 5791 5791 5791 5792 5793 5796 5797 5800 5804 5808 5812 5816 5820 5824 5828 5832 5836 5840 5844 5847 5850 5854 5857 5861 5864 5868 5871 5874 5876 5879 5881 5883 5886
5822 5818 5813 5810 5806 5802 5799 5796 5793 5791 5790 5789 5789 5790 5791 5793 5795 5798 5801 5805 5810 5813 5817 5822 5826 5830 5833 5837 5841 5844 5848 5851 5855 5858 5862 5865 5868 5871 5873 5876 5878 5881 5883
5821 5817 5813 5809 5805 5802 5798 5795 5792 5790 5789 5788 5788 5789 5789 5791 5793 5796 5800 5803 5807 5811 5815 5819 5823 5827 5830 5834 5838 5841 5845 5849 5852 5855 5859 5862 5864 5867 5870 5873 5875 5878 5880
5821 5817 5813 5809 5805 5801 5798 5795 5792 5790 5789 5788 5788 5788 5789 5790 5792 5794 5798 5801 5805 5808 5812 5816 5820 5824 5828 5831 5835 5838 5842 5846 5849 5852 5856 5858 5861 5864 5866 5869 5872 5874 5876
5821 5817 5813 5809 5805 5801 5798 5795 5792 5790 5789 5788 5788 5788 5788 5789 5791 5793 5796 5800 5803 5806 5810 5813 5817 5821 5825 5828 5832 5835 5839 5842 5846 5849 5852 5855 5857 5860 5862 5865 5868 5870 5872
5821 5817 5813 5809 5805 5802 5798 5795 5793 5791 5790 5789 5788 5788 5788 5789 5791 5793 5795 5798 5801 5804 5807 5811 5815 5818 5822 5825 5829 5832 5836 5839 5842 5846 5849 5851 5854 5856 5858 5861 5864 5866 5868
5820 5817 5813 5809 5806 5803 5799 5796 5794 5792 5790 5789 5789 5788 5788 5789 5790 5792 5794 5796 5799 5802 5805 5809 5812 5815 5819 5822 5825 5829 5832 5835 5839 5842 5845 5848 5850 5852 5854 5857 5859 5861 5864
5819 5816 5813 5810 5806 5803 5800 5797 5795 5793 5791 5790 5789 5788 5789 5789 5790 5791 5793 5795 5798 5800 5803 5806 5809 5812 5815 5818 5821 5825 5828 5831 5834 5838 5840 5843 5846 5848 5850 5852 5854 5856 5859
5818 5815 5813 5810 5807 5803 5800 5798 5795 5793 5792 5790 5789 5789 5789 5789 5789 5790 5792 5793 5796 5798 5801 5803 5806 5809 5811 5814 5817 5820 5823 5826 5829 5832 5835 5838 5841 5843 5845 5847 5849 5851 5853
5816 5814 5811 5809 5806 5803 5801 5798 5796 5794 5792 5791 5790 5789 5789 5789 5789 5790 5791 5792 5794 5796 5798 5800 5802 5805 5808 5810 5813 5816 5819 5822 5824 5827 5830 5832 5835 5837 5839 5841 5843 5845 5847
5814 5812 5810 5807 5805 5803 5800 5798 5796 5794 5792 5791 5789 5789 5788 5788 5789 5789 5790 5791 5792 5794 5796 5797 5799 5801 5804 5806 5809 5811 5814 5816 5819 5821 5824 5826 5829 5831 5833 5835 5837 5838 5840
5811 5809 5807 5805 5803 5801 5799 5797 5795 5794 5792 5790 5789 5788 5788 5788 5788 5788 5789 5789 5791 5792 5793 5794 5796 5798 5800 5802 5804 5806 5809 5811 5813 5815 5818 5820 5822 5824 5826 5828 5830 5832 5833
5807 5805 5804 5802 5800 5799 5797 5795 5794 5792 5791 5789 5788 5787 5787 5786 5786 5787 5787 5787 5788 5789 5790 5791 5793 5794 5796 5797 5799 5801 5803 5805 5807 5809 5811 5813 5815 5817 5819 5821 5823 5825 5827
5803 5801 5799 5798 5797 5795 5794 5792 5791 5790 5788 5787 5786 5786 5785 5785 5784 5784 5785 5785 5786 5786 5787 5788 5789 5791 5792 5793 5795 5796 5798 5800 5801 5803 5805 5807 5809 5811 5812 5814 5816 5818 5819
5798 5796 5795 5793 5792 5791 5790 5788 5787 5786 5785 5784 5783 5783 5782 5782 5782 5782 5781 5782 5782 5783 5784 5785 5786 5786 5788 5789 5790 5791 5793 5794 5796 5798 5799 5801 5802 5804 5805 5807 5808 5810 5811
5792 5791 5789 5788 5787 5785 5784 5783 5782 5781 5781 5780 5779 5779 5779 5778 5778 5778 5778 5778 5778 5779 5780 5780 5781 5782 5783 5784 5785 5786 5787 5789 5790 5791 5793 5794 5795 5797 5798 5799 5800 5802 5803
5786 5784 5783 5781 5780 5779 5778 5777 5776 5776 5775 5775 5774 5774 5774 5773 5773 5773 5774 5774 5774 5774 5775 5776 5776 5777 5778 5779 5780 5781 5782 5783 5784 5785 5786 5788 5788 5789 5790 5791 5793 5794 5795
5777 5776 5775 5773 5772 5771 5770 5770 5769 5769 5769 5768 5768 5768 5768 5768 5768 5768 5768 5768 5769 5769 5769 5770 5771 5771 5772 5773 5774 5775 5776 5777 5778 5779 5780 5781 5782 5783 5783 5784 5786 5787 5788
5767 5766 5765 5764 5763 5762 5762 5761 5761 5761 5761 5761 5761 5761 5761 5761 5762 5762 5762 5762 5763 5763 5764 5764 5765 5766 5767 5767 5768 5769 5770 5771 5772 5773 5774 5775 5776 5776 5777 5778 5779 5779 5780